Location: Les Chemineaux
(47.3024°N, 1.5104°E)
Time: 04:15:42
(UTC+00:00)

Spot 1 - Pass Details

Date: 19 May 2025
Orbit: 568 x 753 km, 98.7° (Epoch: 13 June)

Event Time Altitude Azimuth Distance (km) Brightness Sun altitude
Rises 23:18:46 0° 16° (NNE) 2,866 8.6 -22.3°
Reaches altitude 10° 23:20:55 10° 18° (NNE) 1,981 7.5 -22.4°
Maximum altitude 23:25:13 73° 104° (ESE) 671 4.0 -22.5°
Enters shadow 23:25:36 67° 145° (SE) 693 4.0 -22.5°
